Flag for Slovakia Weather past 2 weeks in Košice, Slovakia

Now
59 °F

Partly sunny.


Feels Like: 56 °F
Forecast: 47 / 57 °F
Wind: 17 mph from North

Location: Kosice - Barca

Current Time: Oct 2, 2014 at 5:13:58 PM

Latest Report: Oct 2, 2014 at 4:30 PM


Visibility: N/A

Pressure: 30.30 "Hg

Humidity: 82%

Dew point: 54 °F

Location of KošiceLocation

Historic Weather in Košice — Graph

°F

Košice temperature yesterday

Maximum temperature yesterday: 66 °F (at 12:00 PM)
Minimum temperature yesterday: 52 °F (at 12:30 AM)
Average temperature yesterday: 59 °F

Past Weeks' High & Low Weather Summary

 TemperatureHumidityPressure
High72 °F (Sep 17, 4:00 PM)100% (Sep 20, 11:30 PM)30.42 "Hg (Sep 20, 11:30 PM)
Low39 °F (Sep 24, 6:00 AM)41% (Sep 19, 1:30 PM)29.68 "Hg (Sep 22, 7:00 AM)
Average56 °F81%30.11 "Hg
* Reported Sep 17 4:00 PM — Oct 2 4:00 PM, Košice, Weather by CustomWeather, © 2014

Note: Actual official high and low records may vary slightly from our data, if they occured in-between our weather recording intervals... More about our weather records

Advertising

Košice weather history for previous 24 hours

 ConditionsComfort  
Time TempWeatherWind HumidityBarometerVisibility
4:00 PM
Oct 2
59 °FBroken clouds.20 mph82%30.30 "HgN/A
3:30 PM59 °FBroken clouds.16 mph82%30.30 "HgN/A
3:00 PM61 °FBroken clouds.14 mph83%30.30 "HgN/A
2:30 PM61 °FPartly sunny.10 mph83%30.27 "HgN/A
2:00 PM61 °FPartly sunny.12 mph83%30.27 "HgN/A
1:30 PM61 °FPartly sunny.13 mph83%30.27 "HgN/A
1:00 PM61 °FBroken clouds.10 mph83%30.30 "HgN/A
12:30 PM61 °FPartly sunny.9 mph88%30.30 "HgN/A
12:00 PM61 °FPartly sunny.8 mph83%30.30 "HgN/A
11:30 AM59 °FBroken clouds.8 mph94%30.30 "HgN/A
11:00 AM61 °FPartly sunny.2 mph88%30.30 "HgN/A
10:30 AM59 °FBroken clouds.2 mph94%30.30 "HgN/A
10:00 AM59 °FBroken clouds.3 mph94%30.27 "Hg4 mi
9:30 AM59 °FPartly sunny.2 mph94%30.27 "Hg4 mi
9:00 AM59 °FFog.1 mph94%30.27 "Hg2 mi
8:30 AM57 °FFog.1 mph100%30.27 "Hg1 mi
8:00 AM57 °FFog.2 mph100%30.27 "Hg1 mi
7:30 AM55 °FFog.1 mph100%30.27 "Hg1 mi
7:00 AM55 °FMostly cloudy.1 mph100%30.27 "Hg1 mi
6:30 AM55 °FDrizzle. Mostly cloudy.No wind100%30.27 "Hg1 mi
6:00 AM55 °FLight rain. Mostly cloudy.No wind100%30.24 "Hg2 mi
5:30 AM55 °FLight rain. Mostly cloudy.1 mph100%30.27 "Hg1 mi
5:00 AM55 °FLight rain. Mostly cloudy.No wind100%30.27 "Hg2 mi
4:30 AM55 °FMixture of precip. Mostly cloudy.No wind100%30.27 "Hg2 mi
4:00 AM55 °FMixture of precip. Mostly cloudy.1 mph100%30.27 "Hg2 mi
3:30 AM57 °FSnow. Overcast.1 mph94%30.27 "Hg2 mi
3:00 AM57 °FMixture of precip. Mostly cloudy.1 mph94%30.27 "Hg2 mi
2:30 AM57 °FLight rain. Fog.1 mph94%30.27 "Hg1 mi
2:00 AM57 °FLight rain. Fog.3 mph94%30.27 "Hg1 mi
1:30 AM57 °FLight rain. Fog.2 mph100%30.27 "Hg1 mi
1:00 AM57 °FLight rain. Fog.3 mph100%30.27 "Hg1 mi
12:30 AM57 °FLight rain. Fog.2 mph100%30.27 "Hg3 mi
12:00 AM57 °FLight rain. Fog.1 mph100%30.27 "Hg3 mi
11:30 PM
Oct 1
59 °FLight rain. Fog.2 mph94%30.27 "Hg3 mi
11:00 PM59 °FLight rain. Clear.2 mph94%30.27 "Hg4 mi
10:30 PM59 °FLight rain. Clear.3 mph94%30.27 "Hg6 mi
10:00 PM59 °FLight rain. Low clouds.5 mph94%30.27 "Hg5 mi
9:30 PM59 °FLight rain. Low clouds.3 mph94%30.27 "Hg5 mi
9:00 PM59 °FPassing clouds.7 mph100%30.27 "Hg4 mi
8:30 PM59 °FLight rain. Partly cloudy.3 mph94%30.27 "Hg4 mi
8:00 PM59 °FLight rain. Low clouds.2 mph100%30.27 "Hg2 mi
7:30 PM59 °FLight rain. Fog.2 mph100%30.27 "Hg3 mi
7:00 PM59 °FLight rain. Fog.3 mph100%30.27 "Hg3 mi
6:30 PM59 °FLight rain. Fog.1 mph100%30.27 "Hg2 mi
6:00 PM59 °FLight rain. Fog.3 mph100%30.27 "Hg2 mi
5:30 PM61 °FLight rain. Clear.2 mph94%30.27 "Hg4 mi
5:00 PM61 °FLight rain. Clear.2 mph94%30.27 "HgN/A
Weather by CustomWeather, © 2014

See weather overviewHow to use our weather pages